EST,Max TemperatureF,Mean TemperatureF,Min TemperatureF,Max Dew PointF,MeanDew PointF,Min DewpointF,Max Humidity, Mean Humidity, Min Humidity, Max Sea Level PressureIn, Mean Sea Level PressureIn, Min Sea Level PressureIn, Max VisibilityMiles, Mean VisibilityMiles, Min VisibilityMiles, Max Wind SpeedMPH, Mean Wind SpeedMPH, Max Gust SpeedMPH,PrecipitationIn, CloudCover, Events, WindDirDegrees
2014-2-1,82,75,68,71,68,67,100,92,58,30.13,30.08,30.04,10,4,0,10,4,15,T,7,Fog-Rain,116
2014-2-2,87,75,63,69,65,60,100,83,42,30.15,30.09,30.04,10,6,0,14,4,20,0.01,2,Fog,134
2014-2-3,84,75,65,71,68,65,100,88,63,30.12,30.07,30.03,10,6,0,14,4,18,0.00,4,Fog,150
2014-2-4,88,79,69,71,68,63,97,81,43,30.12,30.07,30.02,10,10,10,17,6,24,0.00,5,,106
2014-2-5,84,77,69,72,71,66,100,87,69,30.10,30.06,30.01,10,8,1,18,6,26,0.00,6,,207
2014-2-6,83,77,71,72,69,66,100,85,67,30.14,30.07,30.02,10,8,1,13,4,17,T,7,,332
2014-2-7,83,71,58,65,60,56,93,80,55,30.16,30.11,30.06,10,9,2,16,9,19,0.00,6,,51
2014-2-8,82,73,64,67,65,60,100,84,58,30.12,30.08,30.03,10,8,1,16,7,20,0.00,5,,102
2014-2-9,79,70,61,61,59,52,93,76,50,30.12,30.07,30.03,10,10,10,13,6,17,0.00,5,,40
2014-2-10,81,69,57,59,56,53,93,68,42,30.12,30.06,30.01,10,10,10,13,6,16,0.00,0,,15
2014-2-11,80,69,58,63,58,55,93,74,52,30.08,30.05,30.01,10,10,10,15,6,19,0.00,0,,279
2014-2-12,82,69,56,68,62,56,93,86,58,30.02,29.91,29.80,10,8,2,23,7,29,0.47,4,Rain-Thunderstorm,223
2014-2-13,69,61,53,67,57,48,93,81,52,30.01,29.85,29.74,10,8,0,28,14,35,0.53,6,Fog-Rain,298
2014-2-14,67,56,45,49,45,39,93,68,40,30.11,30.03,29.99,10,10,10,14,5,16,0.00,0,,346
2014-2-15,77,65,53,60,52,43,93,69,37,30.16,30.06,29.96,10,10,10,22,9,28,0.00,2,,282
2014-2-16,78,62,46,50,43,30,86,59,20,30.22,30.17,30.12,10,10,10,15,5,17,0.00,0,,354
2014-2-17,83,67,50,55,47,42,78,56,26,30.24,30.19,30.14,10,10,10,15,5,20,0.00,0,,70
2014-2-18,83,69,54,60,55,51,93,68,34,30.25,30.19,30.14,10,10,10,12,4,15,0.00,0,,72
2014-2-19,84,71,57,63,60,55,93,73,45,30.19,30.13,30.07,10,10,10,14,5,17,0.00,0,,156
2014-2-20,87,74,60,68,64,59,100,75,48,30.17,30.10,30.05,10,10,6,16,7,22,0.00,1,,133
2014-2-21,85,78,70,71,69,66,100,83,55,30.09,30.05,30.03,10,9,8,20,9,29,0.00,1,,167
2014-2-22,84,76,68,72,69,66,100,89,63,30.12,30.07,30.01,10,7,0,13,5,21,0.00,5,Fog,217
2014-2-23,84,75,65,69,67,64,100,89,55,30.10,30.05,30.00,10,5,0,15,5,18,0.00,4,Fog,263
2014-2-24,83,75,67,68,66,62,97,79,54,30.07,30.04,30.00,10,10,9,14,6,18,0.00,3,,295
2014-2-25,81,73,65,65,64,63,100,84,54,30.09,30.02,29.96,10,8,4,14,5,17,0.00,3,,335
2014-2-26,79,70,60,71,64,60,100,87,64,29.97,29.87,29.78,10,7,0,23,8,29,T,4,Fog,221
2014-2-27,74,66,57,67,60,55,97,81,61,29.97,29.88,29.79,10,10,5,17,9,22,0.16,7,Rain,333
2014-2-28,72,63,54,55,49,44,93,71,38,30.11,30.02,29.94,10,9,3,13,7,19,0.11,3,Rain,351